Location: Chuathbaluk
(61.5726°N, 159.2454°W)
Time: 22:42:53
(UTC+00:00)

Transit 2A - Pass Details

Date: 27 November 2020
Orbit: 598 x 960 km, 66.7° (Epoch: 20 January)

Event Time Altitude Azimuth Distance (km) Brightness Sun altitude
Rises 04:53:06 0° 202° (SSW) 3,618 9.8 -21.9°
Reaches altitude 10° 04:55:49 10° 196° (SSW) 2,653 9.0 -22.2°
Maximum altitude 05:01:38 44° 127° (SE) 1,235 6.7 -22.9°
Enters shadow 05:01:48 44° 122° (ESE) 1,235 6.6 -22.9°
Drops below altitude 10° 05:07:05 10° 57° (ENE) 2,487 - -23.6°
Sets 05:09:33 0° 51° (NE) 3,370 - -23.9°
